DW9007 Weather Reports


Display with metric or nautical units.
time (UTC)temp
F
wind
direction
speed
MPH
gust
MPH
rain 1hr
in
rain 24hr
in
rain mn
in
humidity
%
barometer
mb
20260831061514 75 92 0.0 0.0 0.00 0.00 0.00 91 1016.6
20260831060012 75 92 0.0 0.0 0.00 0.00 0.00 90 1016.8
20260831054600 75 92 0.0 0.0 0.00 0.00 0.00 90 1016.6
20260831053100 75 92 0.0 0.0 0.00 0.00 0.00 89 1016.7
20260831051608 75 92 0.0 0.0 0.00 0.00 0.00 89 1016.7
20260831050058 75 92 0.0 0.0 0.00 0.00 0.00 88 1016.8
20260831044607 76 92 0.0 0.0 0.00 0.00 0.00 87 1017.0
20260831043055 76 92 0.0 0.0 0.00 0.00 0.00 87 1016.8
20260831041555 76 92 0.0 0.0 0.00 0.00 0.00 87 1016.8
20260831040052 77 92 0.0 0.0 0.00 0.00 0.00 86 1016.8
20260831034542 77 92 0.0 0.0 0.00 0.00 0.00 86 1016.8
20260831033032 77 92 0.0 0.0 0.00 0.00 0.00 85 1016.9
20260831031513 77 92 0.0 0.0 0.00 0.00 0.00 84 1016.9
20260831030013 78 92 0.0 0.0 0.00 0.00 0.00 84 1016.8
20260831024611 78 92 0.0 0.0 0.00 0.00 0.00 83 1016.8
20260831023052 78 92 0.0 0.0 0.00 0.00 0.00 83 1016.7
20260831021551 78 92 0.0 0.0 0.00 0.00 0.00 82 1016.8
20260831020032 79 92 0.0 0.0 0.00 0.00 0.00 81 1016.6
20260831014531 79 92 0.0 0.0 0.00 0.00 0.00 80 1016.5
20260831013011 80 92 0.0 0.0 0.00 0.00 0.00 79 1016.3
20260831011509 80 92 0.0 0.0 0.00 0.00 0.00 77 1016.2
20260831010053 81 92 0.0 0.0 0.00 0.00 0.00 76 1016.1
20260831004546 82 92 0.0 0.0 0.00 0.00 0.00 75 1016.1
20260831003034 83 92 0.0 0.0 0.00 0.00 0.00 73 1016.0
20260831001522 84 92 0.0 0.0 0.00 0.00 0.00 71 1016.0
20260831000100 85 92 0.0 0.0 0.00 0.00 0.00 69 1015.8
20260830234557 87 92 0.0 0.0 0.00 0.00 0.00 67 1015.9
20260830233040 88 92 0.0 2.0 0.00 0.00 0.00 65 1015.8
20260830231539 88 92 0.0 0.0 0.00 0.00 0.00 63 1015.7
20260830230023 89 92 0.0 2.0 0.00 0.00 0.00 61 1015.6
20260830224522 89 93 0.0 5.0 0.00 0.00 0.00 60 1015.5
20260830223005 90 109 0.0 3.0 0.00 0.00 0.00 59 1015.5
20260830221503 90 107 0.0 4.0 0.00 0.00 0.00 60 1015.5
20260830220046 90 98 1.0 5.0 0.00 0.00 0.00 59 1015.5
20260830214546 90 110 0.0 3.0 0.00 0.00 0.00 58 1015.6
20260830213025 90 126 2.0 9.0 0.00 0.00 0.00 57 1015.8
20260830211524 90 88 2.0 5.0 0.00 0.00 0.00 58 1015.9
20260830210006 90 87 1.0 6.0 0.00 0.00 0.00 59 1015.9
20260830204502 90 103 1.0 8.0 0.00 0.00 0.00 59 1016.0
20260830203043 89 136 0.0 8.0 0.00 0.00 0.00 61 1016.3
20260830201540 89 60 1.0 3.0 0.00 0.00 0.00 60 1016.5
20260830200039 89 165 0.0 2.0 0.00 0.00 0.00 62 1016.6
20260830194520 89 80 0.0 3.0 0.00 0.00 0.00 64 1016.8
20260830193059 88 104 0.0 5.0 0.00 0.00 0.00 65 1016.9
20260830191556 86 95 1.0 7.0 0.00 0.00 0.00 66 1017.1
20260830190044 88 81 1.0 6.0 0.00 0.00 0.00 65 1017.1
20260830184536 88 139 0.0 5.0 0.00 0.00 0.00 66 1017.5
20260830183018 87 301 0.0 3.0 0.00 0.00 0.00 66 1017.7
20260830181518 87 239 0.0 5.0 0.00 0.00 0.00 66 1017.9
20260830180109 87 228 0.0 4.0 0.00 0.00 0.00 69 1018.2
20260830174609 86 85 0.0 3.0 0.00 0.00 0.00 71 1018.3
20260830173041 86 207 1.0 5.0 0.00 0.00 0.00 74 1018.4
20260830171542 85 274 0.0 3.0 0.00 0.00 0.00 76 1018.5
20260830170020 84 240 0.0 3.0 0.00 0.00 0.00 78 1018.9
20260830164520 83 71 0.0 6.0 0.00 0.00 0.00 80 1018.9
20260830163003 82 92 1.0 9.0 0.00 0.00 0.00 80 1019.1
20260830161502 82 96 0.0 5.0 0.00 0.00 0.00 83 1019.2
20260830160045 81 92 2.0 7.0 0.00 0.00 0.00 84 1019.4
20260830154545 81 224 0.0 5.0 0.00 0.00 0.00 84 1019.4
20260830153032 81 117 0.0 3.0 0.00 0.00 0.00 86 1019.4
20260830151532 80 114 0.0 3.0 0.00 0.00 0.00 86 1019.4
20260830150031 80 228 0.0 4.0 0.00 0.00 0.00 87 1019.3
20260830144532 79 213 0.0 2.0 0.00 0.00 0.00 88 1019.3
20260830143030 78 244 0.0 2.0 0.00 0.00 0.00 90 1019.4
20260830141530 78 263 0.0 2.0 0.00 0.00 0.00 91 1019.3
20260830140028 77 173 0.0 3.0 0.00 0.00 0.00 92 1019.3
20260830134537 76 159 0.0 2.0 0.00 0.00 0.00 94 1019.4
20260830133011 75 169 0.0 1.0 0.00 0.00 0.00 94 1019.2
20260830131509 74 91 0.0 2.0 0.00 0.00 0.00 95 1019.1
20260830130050 74 92 0.0 0.0 0.00 0.00 0.00 95 1019.0
20260830124549 73 92 0.0 0.0 0.00 0.00 0.00 95 1018.9
20260830123030 72 92 0.0 0.0 0.00 0.00 0.00 95 1018.8
20260830121537 72 92 0.0 0.0 0.00 0.00 0.00 95 1018.7
20260830120012 71 92 0.0 0.0 0.00 0.00 0.00 94 1018.8
20260830114510 72 92 0.0 0.0 0.00 0.00 0.00 94 1018.7
20260830113057 72 92 0.0 0.0 0.00 0.00 0.00 94 1018.5
20260830111551 72 92 0.0 0.0 0.00 0.00 0.00 94 1018.4
20260830110029 72 92 0.0 0.0 0.00 0.00 0.00 94 1018.1
20260830104551 72 92 0.0 0.0 0.00 0.00 0.00 94 1018.0
20260830103009 72 92 0.0 0.0 0.00 0.00 0.00 94 1017.8
20260830101512 72 92 0.0 0.0 0.00 0.00 0.00 93 1017.6
20260830100051 72 92 0.0 0.0 0.00 0.00 0.00 94 1017.5
20260830094550 73 92 0.0 0.0 0.00 0.00 0.00 93 1017.4
20260830093040 73 92 0.0 0.0 0.00 0.00 0.00 93 1017.3
20260830091531 73 92 0.0 0.0 0.00 0.00 0.00 93 1017.4
20260830090016 73 92 0.0 0.0 0.00 0.00 0.00 93 1017.4
20260830084511 73 92 0.0 0.0 0.00 0.00 0.00 93 1017.3
20260830083103 74 92 0.0 0.0 0.00 0.00 0.00 93 1017.2
20260830081554 74 92 0.0 0.0 0.00 0.00 0.00 93 1017.1
20260830080035 74 92 0.0 0.0 0.00 0.00 0.00 92 1017.0
20260830074534 74 92 0.0 0.0 0.00 0.00 0.00 92 1017.0
20260830073015 74 92 0.0 0.0 0.00 0.00 0.00 91 1017.0
20260830071523 75 92 0.0 0.0 0.00 0.00 0.00 92 1017.3
20260830070055 75 92 0.0 0.0 0.00 0.00 0.00 91 1017.2
20260830064554 75 92 0.0 0.0 0.00 0.00 0.00 91 1017.3
20260830063037 75 92 0.0 0.0 0.00 0.00 0.00 91 1017.3